TimeCDT,TemperatureF,Dew PointF,Humidity,Sea Level PressureIn,VisibilityMPH,Wind Direction,Wind SpeedMPH,Gust SpeedMPH,PrecipitationIn,Events,Conditions,WindDirDegrees,DateUTC
12:15 AM,82.4,51.8,35,30.02,10.0,SSE,13.8,-,N/A,,Clear,160,2013-07-09 05:15:00
12:35 AM,82.4,53.6,37,30.03,10.0,South,11.5,-,N/A,,Clear,170,2013-07-09 05:35:00
12:55 AM,82.4,53.6,37,30.03,10.0,South,11.5,-,N/A,,Clear,170,2013-07-09 05:55:00
1:15 AM,80.6,53.6,39,30.04,10.0,South,10.4,-,N/A,,Clear,170,2013-07-09 06:15:00
1:35 AM,80.6,53.6,39,30.04,10.0,SSE,11.5,-,N/A,,Clear,160,2013-07-09 06:35:00
1:55 AM,80.6,53.6,39,30.04,10.0,South,10.4,-,N/A,,Clear,170,2013-07-09 06:55:00
2:15 AM,80.6,53.6,39,30.05,10.0,South,11.5,-,N/A,,Clear,170,2013-07-09 07:15:00
2:35 AM,80.6,53.6,39,30.05,10.0,South,11.5,-,N/A,,Clear,170,2013-07-09 07:35:00
2:55 AM,80.6,53.6,39,30.06,10.0,South,10.4,-,N/A,,Clear,170,2013-07-09 07:55:00
3:15 AM,78.8,53.6,42,30.05,10.0,South,12.7,-,N/A,,Clear,170,2013-07-09 08:15:00
3:35 AM,78.8,53.6,42,30.05,10.0,South,10.4,-,N/A,,Clear,170,2013-07-09 08:35:00
3:55 AM,77.0,53.6,44,30.04,10.0,South,8.1,-,N/A,,Clear,170,2013-07-09 08:55:00
4:15 AM,75.2,53.6,47,30.04,10.0,South,10.4,-,N/A,,Clear,190,2013-07-09 09:15:00
4:35 AM,75.2,53.6,47,30.04,10.0,South,9.2,-,N/A,,Clear,180,2013-07-09 09:35:00
4:55 AM,73.4,53.6,50,30.03,10.0,South,9.2,-,N/A,,Clear,180,2013-07-09 09:55:00
5:15 AM,73.4,53.6,50,30.03,10.0,South,9.2,-,N/A,,Clear,180,2013-07-09 10:15:00
5:35 AM,71.6,53.6,53,30.03,10.0,South,9.2,-,N/A,,Clear,190,2013-07-09 10:35:00
5:55 AM,73.4,53.6,50,30.04,10.0,South,6.9,-,N/A,,Clear,190,2013-07-09 10:55:00
6:15 AM,71.6,53.6,53,30.04,10.0,South,8.1,-,N/A,,Clear,170,2013-07-09 11:15:00
6:35 AM,71.6,53.6,53,30.04,10.0,South,10.4,-,N/A,,Clear,170,2013-07-09 11:35:00
6:55 AM,71.6,53.6,53,30.04,10.0,South,11.5,-,N/A,,Clear,170,2013-07-09 11:55:00
7:15 AM,73.4,53.6,50,30.04,10.0,South,11.5,-,N/A,,Clear,180,2013-07-09 12:15:00
7:35 AM,77.0,55.4,47,30.04,10.0,South,12.7,-,N/A,,Clear,190,2013-07-09 12:35:00
7:55 AM,78.8,55.4,44,30.04,10.0,South,13.8,-,N/A,,Clear,190,2013-07-09 12:55:00
8:15 AM,78.8,55.4,44,30.05,10.0,South,16.1,-,N/A,,Clear,190,2013-07-09 13:15:00
8:35 AM,82.4,57.2,42,30.06,10.0,SSW,19.6,-,N/A,,Clear,200,2013-07-09 13:35:00
8:55 AM,82.4,57.2,42,30.07,10.0,SSW,16.1,20.7,N/A,,Clear,200,2013-07-09 13:55:00
9:15 AM,84.2,57.2,40,30.07,10.0,SSW,18.4,24.2,N/A,,Clear,210,2013-07-09 14:15:00
9:35 AM,87.8,57.2,35,30.07,10.0,SSW,18.4,21.9,N/A,,Clear,210,2013-07-09 14:35:00
9:55 AM,89.6,59.0,36,30.07,10.0,SW,17.3,25.3,N/A,,Clear,220,2013-07-09 14:55:00
10:15 AM,91.4,57.2,31,30.07,10.0,SW,18.4,-,N/A,,Clear,230,2013-07-09 15:15:00
10:35 AM,93.2,57.2,30,30.07,10.0,SW,19.6,26.5,N/A,,Clear,220,2013-07-09 15:35:00
10:55 AM,93.2,59.0,32,30.07,10.0,SW,19.6,24.2,N/A,,Clear,220,2013-07-09 15:55:00
11:15 AM,95.0,59.0,30,30.07,10.0,SW,19.6,-,N/A,,Clear,230,2013-07-09 16:15:00
11:35 AM,96.8,57.2,27,30.07,10.0,SW,21.9,-,N/A,,Clear,230,2013-07-09 16:35:00
11:55 AM,96.8,57.2,27,30.07,10.0,SW,18.4,-,N/A,,Clear,230,2013-07-09 16:55:00
12:15 PM,98.6,57.2,25,30.06,10.0,SW,17.3,25.3,N/A,,Clear,230,2013-07-09 17:15:00
12:35 PM,100.4,57.2,24,30.06,10.0,WSW,16.1,23.0,N/A,,Clear,240,2013-07-09 17:35:00
12:55 PM,100.4,57.2,24,30.06,10.0,SW,13.8,25.3,N/A,,Clear,230,2013-07-09 17:55:00
1:15 PM,100.4,57.2,24,30.05,10.0,SSW,13.8,23.0,N/A,,Clear,210,2013-07-09 18:15:00
1:35 PM,100.4,57.2,24,30.05,10.0,SW,13.8,19.6,N/A,,Clear,220,2013-07-09 18:35:00
1:55 PM,100.4,57.2,24,30.04,10.0,SW,12.7,20.7,N/A,,Clear,220,2013-07-09 18:55:00
2:15 PM,102.2,57.2,22,30.04,10.0,South,18.4,24.2,N/A,,Clear,180,2013-07-09 19:15:00
2:35 PM,102.2,57.2,22,30.03,10.0,South,17.3,26.5,N/A,,Clear,190,2013-07-09 19:35:00
2:55 PM,102.2,55.4,21,30.02,10.0,South,13.8,21.9,N/A,,Clear,190,2013-07-09 19:55:00
3:15 PM,102.2,55.4,21,30.02,10.0,SW,16.1,24.2,N/A,,Clear,220,2013-07-09 20:15:00
3:35 PM,102.2,55.4,21,30.01,10.0,South,17.3,23.0,N/A,,Clear,190,2013-07-09 20:35:00
3:55 PM,104.0,57.2,21,30.01,10.0,South,16.1,25.3,N/A,,Clear,180,2013-07-09 20:55:00
4:15 PM,102.2,55.4,21,30.01,10.0,South,18.4,27.6,N/A,,Clear,190,2013-07-09 21:15:00
4:35 PM,102.2,55.4,21,30.00,10.0,South,20.7,25.3,N/A,,Clear,190,2013-07-09 21:35:00
4:55 PM,102.2,55.4,21,29.99,10.0,SSW,15.0,26.5,N/A,,Clear,210,2013-07-09 21:55:00
5:15 PM,102.2,55.4,21,29.98,10.0,SSW,15.0,21.9,N/A,,Clear,200,2013-07-09 22:15:00
5:35 PM,102.2,55.4,21,29.98,10.0,South,17.3,20.7,N/A,,Clear,190,2013-07-09 22:35:00
5:55 PM,102.2,55.4,21,29.97,10.0,SSW,18.4,-,N/A,,Clear,200,2013-07-09 22:55:00
6:15 PM,102.2,55.4,21,29.98,10.0,SSW,16.1,20.7,N/A,,Partly Cloudy,200,2013-07-09 23:15:00
6:35 PM,102.2,55.4,21,29.97,10.0,SSW,13.8,25.3,N/A,,Partly Cloudy,210,2013-07-09 23:35:00
6:55 PM,102.2,55.4,21,29.97,10.0,South,15.0,20.7,N/A,,Partly Cloudy,190,2013-07-09 23:55:00
7:15 PM,100.4,55.4,22,29.97,10.0,SSW,18.4,21.9,N/A,,Clear,200,2013-07-10 00:15:00
7:35 PM,98.6,55.4,24,29.99,10.0,SSW,6.9,-,N/A,,Clear,200,2013-07-10 00:35:00
7:55 PM,98.6,55.4,24,29.99,10.0,SSW,8.1,-,N/A,,Mostly Cloudy,200,2013-07-10 00:55:00
8:15 PM,91.4,55.4,29,29.99,10.0,North,3.5,-,N/A,,Scattered Clouds,10,2013-07-10 01:15:00
8:35 PM,91.4,55.4,29,29.99,10.0,South,4.6,-,N/A,,Clear,170,2013-07-10 01:35:00
8:55 PM,93.2,55.4,28,30.01,10.0,SSW,4.6,-,N/A,,Clear,210,2013-07-10 01:55:00
9:15 PM,89.6,55.4,31,30.01,10.0,North,5.8,-,N/A,,Clear,350,2013-07-10 02:15:00
9:35 PM,89.6,55.4,31,30.03,10.0,NNW,10.4,-,N/A,,Partly Cloudy,340,2013-07-10 02:35:00
9:55 PM,87.8,57.2,35,30.04,10.0,NNW,8.1,-,N/A,Thunderstorm,Mostly Cloudy,340,2013-07-10 02:55:00
10:15 PM,86.0,57.2,37,30.05,10.0,North,10.4,17.3,N/A,Thunderstorm,Mostly Cloudy,350,2013-07-10 03:15:00
10:35 PM,84.2,60.8,45,30.07,9.0,ENE,5.8,-,N/A,Thunderstorm,Thunderstorm,70,2013-07-10 03:35:00
10:55 PM,82.4,62.6,51,30.07,10.0,ENE,8.1,-,N/A,Thunderstorm,Thunderstorm,60,2013-07-10 03:55:00
11:15 PM,82.4,62.6,51,30.07,10.0,SSE,8.1,-,0.01,Thunderstorm,Overcast,160,2013-07-10 04:15:00
11:35 PM,82.4,62.6,51,30.06,10.0,South,18.4,-,0.01,,Mostly Cloudy,170,2013-07-10 04:35:00
11:55 PM,82.4,59.0,45,30.07,10.0,South,17.3,24.2,0.01,,Partly Cloudy,190,2013-07-10 04:55:00